Station Historical Data
 
Daily Summary for July 18, 2018 Units:  English    Metric   Both
« Previous Day
Next Day »
Daily Weekly Monthly Yearly Custom
  Current: High: Low: Average:
Temperature: 67.3 °F TemperatureF °F 66.6 °F 67.6 °F
Dew Point: 61.6 °F DewpointF °F 61.6 °F 65.6 °F
Humidity: 82% Humidity% 82% 92%
Wind Speed: 2.2mph WindSpeedMPHmph 0.0mph 2mph
Wind Gust: 3.5mph WindSpeedGustMPHmph - -
WindNorth - - WNW
Pressure: 29.86 in PressureIn in 29.81 in -
Precipitation: 0.00 in      
Historical Graphs
 
 
Tabular Data for July 18, 2018
Time Temperature Dew Point Pressure Wind Wind Speed Wind Gust Humidity Rainfall Rate (Hourly) solar Conditions
TemperatureF °F DewpointF °F PressureIn in Calm     Humidity% HourlyPrecipIn in SoftwareType W/m2 Conditions
00:04 71.3 °F 70.4 °F 29.81 in NNW 1.6 mph 3.5 mph 97% 0.00 in WeatherDisplay:10.37 W/m2 RA
00:09 70.9 °F 70.0 °F 29.81 in North 1.5 mph 3.5 mph 97% 0.00 in WeatherDisplay:10.37 W/m2 RA
00:14 70.7 °F 69.8 °F 29.81 in North 0.9 mph 2.3 mph 97% 0.00 in WeatherDisplay:10.37 W/m2 CLR
00:19 70.4 °F 69.5 °F 29.81 in North 0.5 mph 3.5 mph 97% 0.00 in WeatherDisplay:10.37 W/m2 CLR
00:24 70.3 °F 69.4 °F 29.81 in North 0.1 mph   97% 0.00 in WeatherDisplay:10.37 W/m2 CLR
00:29 70.3 °F 69.4 °F 29.82 in Calm     97% 0.00 in WeatherDisplay:10.37 W/m2 CLR
00:34 70.4 °F 69.8 °F 29.81 in North 0.4 mph 1.2 mph 98% 0.00 in WeatherDisplay:10.37 W/m2 CLR
00:39 70.5 °F 69.6 °F 29.81 in North 0.5 mph 1.2 mph 97% 0.00 in WeatherDisplay:10.37 W/m2 CLR
00:44 70.2 °F 69.3 °F 29.82 in North 0.8 mph 2.3 mph 97% 0.00 in WeatherDisplay:10.37 W/m2 CLR
00:49 69.9 °F 69.0 °F 29.82 in North 0.9 mph 2.3 mph 97% 0.00 in WeatherDisplay:10.37 W/m2 CLR
00:54 69.7 °F 68.8 °F 29.82 in NNW 1.7 mph 2.3 mph 97% 0.00 in WeatherDisplay:10.37 W/m2 CLR
00:59 69.6 °F 68.7 °F 29.82 in NNW 1.1 mph 3.5 mph 97% 0.00 in WeatherDisplay:10.37 W/m2 CLR
01:04 69.5 °F 68.6 °F 29.82 in NW 1.3 mph 2.3 mph 97% 0.00 in WeatherDisplay:10.37 W/m2 FEW
01:09 69.4 °F 68.5 °F 29.82 in West 1.8 mph 3.5 mph 97% 0.00 in WeatherDisplay:10.37 W/m2 FEW
01:14 69.3 °F 68.4 °F 29.82 in NW 3.5 mph 4.6 mph 97% 0.00 in WeatherDisplay:10.37 W/m2 FEW
01:19 69.2 °F 68.3 °F 29.82 in WNW 1.8 mph 3.5 mph 97% 0.00 in WeatherDisplay:10.37 W/m2 FEW
01:24 69.1 °F 68.2 °F 29.82 in West 0.6 mph 3.5 mph 97% 0.00 in WeatherDisplay:10.37 W/m2 FEW
01:29 69.0 °F 68.1 °F 29.82 in West 0.5 mph 3.0 mph 97% 0.00 in WeatherDisplay:10.37 W/m2 FEW
01:34 68.9 °F 68.0 °F 29.82 in WNW 2.2 mph 3.5 mph 97% 0.00 in WeatherDisplay:10.37 W/m2 FEW
01:39 68.9 °F 67.7 °F 29.82 in West 1.0 mph 4.6 mph 96% 0.00 in WeatherDisplay:10.37 W/m2 FEW
01:44 68.9 °F 67.7 °F 29.82 in West 2.4 mph 3.5 mph 96% 0.00 in WeatherDisplay:10.37 W/m2 FEW
01:49 68.9 °F 67.7 °F 29.82 in WNW 1.9 mph 3.5 mph 96% 0.00 in WeatherDisplay:10.37 W/m2 FEW
01:54 68.9 °F 67.7 °F 29.82 in NW 1.4 mph 4.6 mph 96% 0.00 in WeatherDisplay:10.37 W/m2 FEW
01:59 68.9 °F 67.7 °F 29.82 in WSW 2.4 mph 4.0 mph 96% 0.00 in WeatherDisplay:10.37 W/m2 FEW
02:04 68.7 °F 67.5 °F 29.82 in West 2.8 mph 3.5 mph 96% 0.00 in WeatherDisplay:10.37 W/m2 CLR
02:09 68.5 °F 67.3 °F 29.82 in West 3.1 mph 3.5 mph 96% 0.00 in WeatherDisplay:10.37 W/m2 CLR
02:14 68.5 °F 67.3 °F 29.82 in NW 3.2 mph 3.5 mph 96% 0.00 in WeatherDisplay:10.37 W/m2 CLR
02:19 68.5 °F 67.3 °F 29.82 in WNW 3.0 mph 3.5 mph 96% 0.00 in WeatherDisplay:10.37 W/m2 CLR
02:24 68.5 °F 67.3 °F 29.82 in West 2.6 mph 6.9 mph 96% 0.00 in WeatherDisplay:10.37 W/m2 CLR
02:29 68.5 °F 67.3 °F 29.82 in WNW 3.0 mph 5.8 mph 96% 0.00 in WeatherDisplay:10.37 W/m2 CLR
02:34 68.5 °F 67.3 °F 29.82 in WNW 2.4 mph 3.5 mph 96% 0.00 in WeatherDisplay:10.37 W/m2 CLR
02:39 68.5 °F 67.3 °F 29.82 in West 2.3 mph 3.5 mph 96% 0.00 in WeatherDisplay:10.37 W/m2 CLR
02:44 68.3 °F 67.1 °F 29.82 in West 1.1 mph 3.5 mph 96% 0.00 in WeatherDisplay:10.37 W/m2 CLR
02:49 68.3 °F 67.1 °F 29.82 in West 2.6 mph 3.5 mph 96% 0.00 in WeatherDisplay:10.37 W/m2 CLR
02:54 68.2 °F 67.0 °F 29.82 in West 2.5 mph 2.3 mph 96% 0.00 in WeatherDisplay:10.37 W/m2 CLR
02:59 68.3 °F 67.1 °F 29.82 in WNW 2.0 mph 4.6 mph 96% 0.00 in WeatherDisplay:10.37 W/m2 CLR
03:04 68.3 °F 67.1 °F 29.82 in WNW 3.0 mph 6.9 mph 96% 0.00 in WeatherDisplay:10.37 W/m2 FEW
03:09 68.3 °F 67.1 °F 29.82 in West 1.9 mph 3.5 mph 96% 0.00 in WeatherDisplay:10.37 W/m2 FEW
03:14 68.2 °F 67.0 °F 29.82 in WSW 1.7 mph 2.3 mph 96% 0.00 in WeatherDisplay:10.37 W/m2 FEW
03:19 68.0 °F 66.8 °F 29.82 in WNW 0.4 mph 3.5 mph 96% 0.00 in WeatherDisplay:10.37 W/m2 FEW
03:24 67.9 °F 66.7 °F 29.83 in WNW 2.0 mph 2.3 mph 96% 0.00 in WeatherDisplay:10.37 W/m2 FEW
03:29 67.9 °F 66.7 °F 29.83 in WNW 1.4 mph 3.5 mph 96% 0.00 in WeatherDisplay:10.37 W/m2 FEW
03:34 67.9 °F 66.7 °F 29.83 in WNW 1.9 mph 2.3 mph 96% 0.00 in WeatherDisplay:10.37 W/m2 FEW
03:39 67.7 °F 66.5 °F 29.83 in West 2.8 mph 3.5 mph 96% 0.00 in WeatherDisplay:10.37 W/m2 FEW
03:44 67.6 °F 66.4 °F 29.84 in West 1.9 mph 3.5 mph 96% 0.00 in WeatherDisplay:10.37 W/m2 FEW
03:49 67.6 °F 66.4 °F 29.84 in WNW 3.9 mph 5.8 mph 96% 0.00 in WeatherDisplay:10.37 W/m2 FEW
03:54 67.7 °F 66.5 °F 29.84 in West 2.3 mph 3.5 mph 96% 0.00 in WeatherDisplay:10.37 W/m2 FEW
03:59 67.9 °F 66.4 °F 29.84 in WNW 2.7 mph 3.5 mph 95% 0.00 in WeatherDisplay:10.37 W/m2 FEW
04:04 68.1 °F 66.3 °F 29.84 in West 1.3 mph 3.5 mph 94% 0.00 in WeatherDisplay:10.37 W/m2 BKN
04:09 68.2 °F 65.8 °F 29.84 in WNW 1.5 mph 3.5 mph 92% 0.00 in WeatherDisplay:10.37 W/m2 BKN
04:14 68.2 °F 65.8 °F 29.84 in WNW 2.4 mph 3.5 mph 92% 0.00 in WeatherDisplay:10.37 W/m2 BKN
04:19 68.3 °F 65.6 °F 29.84 in WSW 2.4 mph 3.5 mph 91% 0.00 in WeatherDisplay:10.37 W/m2 BKN
04:24 68.4 °F 65.4 °F 29.84 in WSW 4.6 mph 8.1 mph 90% 0.00 in WeatherDisplay:10.37 W/m2 BKN
04:29 68.5 °F 65.1 °F 29.84 in WNW 2.0 mph 3.5 mph 89% 0.00 in WeatherDisplay:10.37 W/m2 BKN
04:34 68.3 °F 64.9 °F 29.84 in West 4.3 mph 5.8 mph 89% 0.00 in WeatherDisplay:10.37 W/m2 BKN
04:39 68.2 °F 64.8 °F 29.84 in NNE 1.6 mph 5.8 mph 89% 0.00 in WeatherDisplay:10.37 W/m2 BKN
04:44 68.2 °F 64.8 °F 29.85 in NNW 2.6 mph 3.5 mph 89% 0.00 in WeatherDisplay:10.37 W/m2 BKN
04:49 68.1 °F 64.4 °F 29.85 in North 2.8 mph 4.6 mph 88% 0.00 in WeatherDisplay:10.37 W/m2 BKN
04:54 68.2 °F 64.2 °F 29.85 in WSW 3.0 mph 4.6 mph 87% 0.00 in WeatherDisplay:10.37 W/m2 BKN
04:59 68.0 °F 64.0 °F 29.85 in West 4.0 mph 5.8 mph 87% 0.00 in WeatherDisplay:10.37 W/m2 BKN
05:04 67.9 °F 63.9 °F 29.85 in West 2.9 mph 3.5 mph 87% 0.00 in WeatherDisplay:10.37 W/m2 CLR
05:09 67.9 °F 63.9 °F 29.86 in NW 2.1 mph 6.9 mph 87% 0.00 in WeatherDisplay:10.37 W/m2 CLR
05:14 67.5 °F 63.8 °F 29.86 in WNW 1.5 mph 4.6 mph 88% 0.00 in WeatherDisplay:10.37 W/m2 CLR
05:19 67.2 °F 63.8 °F 29.86 in West 1.4 mph 6.9 mph 89% 0.00 in WeatherDisplay:10.37 W/m2 CLR
05:24 67.1 °F 63.7 °F 29.86 in WNW 2.5 mph 3.5 mph 89% 0.00 in WeatherDisplay:10.37 W/m2 CLR
05:29 67.0 °F 64.0 °F 29.86 in West 2.4 mph 4.6 mph 90% 0.00 in WeatherDisplay:10.37 W/m2 CLR
05:34 66.9 °F 64.2 °F 29.86 in West 0.9 mph 2.3 mph 91% 0.00 in WeatherDisplay:10.37 W/m2 CLR
05:39 66.7 °F 64.0 °F 29.86 in WNW 2.5 mph 3.5 mph 91% 0.00 in WeatherDisplay:10.37 W/m2 CLR
05:44 66.6 °F 63.6 °F 29.86 in West 1.1 mph 3.5 mph 90% 0.00 in WeatherDisplay:10.37 W/m2 CLR
05:49 66.7 °F 63.4 °F 29.86 in WNW 1.6 mph 4.6 mph 89% 0.00 in WeatherDisplay:10.37 W/m2 CLR
05:54 66.8 °F 62.8 °F 29.86 in North 1.9 mph 1.2 mph 87% 0.00 in WeatherDisplay:10.37 W/m2 CLR
05:59 66.9 °F 62.6 °F 29.86 in WNW 4.0 mph 4.6 mph 86% 0.00 in WeatherDisplay:10.37 W/m2 CLR
06:04 67.1 °F 62.1 °F 29.86 in West 2.5 mph 3.5 mph 84% 0.00 in WeatherDisplay:10.37 W/m2 BKN
06:09 67.4 °F 62.1 °F 29.86 in WNW 2.6 mph 3.5 mph 83% 0.00 in WeatherDisplay:10.37 W/m2 BKN
06:14 67.3 °F 61.6 °F 29.86 in North 2.2 mph 3.5 mph 82% 0.00 in WeatherDisplay:10.37 W/m2 BKN
East Vincent, PA, USA
Compliments of Weather Underground - 3 mb